DMSP 5D-2 F11 DEB, 28302

Orbit data source: Space-Track

DMSP 5D-2 F11 DEB, 28302 is space debris in SSO originally from a launch on Thu, 28 Nov 1991 UTC launched from the Air Force Western Test Range (AFWTR). Debris objects in space refer to the collection of defunct objects orbiting the Earth. Examples of debris include non-operational satellites, rocket bodies, and fragments generated from explosions, collisions, or faulty payload assembly.

Loading next visibility...
Identifier
28302, 1991-082P
Orbit
SSO
Country
Flag of USUS
Related business
Manufacturer
Unknown
Mission
Spacecraft
Bus & Motor
Unknown
Mass
Unknown
Launch date (UTC)
1991-11-28 (34 years ago)
Launch vehicle
Unknown
Launch site
Air Force Western Test Range (AFWTR)
Object type
Payload
Rocket body
Debris
Shape & HBR
Unknown shape, 0.1 m
Radar Cross Section
Small (<0.1 m²)

Expand to show TLE details & history
Last TLE update: 8 hours ago

TLE from 8 hours ago
0 DMSP 5D-2 F11 DEB
1 28302U 91082P   25349.84725426  .00001433  00000-0  61354-3 0  9999
2 28302  98.6563  20.5219 0029277  60.4461 299.9632 14.26216068120370
Epoch: 2025-12-15T20:20Z
TLE epoch observation values (Epoch: 2025-12-15T20:20:02.768Z)
Latitude
0.00001°
Longitude
-9.22958°
Altitude
796.873 km
Speed
7.461 km/s
True Right ascension
01h 22m 05s
True Declination
0° 00' 00"
Sunlit
Object was in daylight at epoch
Visualization orbit readout
Latitude
Unknown
Longitude
Unknown
Altitude
Unknown
Speed
Unknown
Apparent Right ascension
Unknown
Apparent Declination
Unknown
Sunlit
N/A
Visualization observer readout
Local Sidereal Time
03:07:57
Azimuth
Unknown
Elevation
Unknown
Doppler factor
Unknown
Orbital elements
Apogee altitude
822.575 km
Perigee altitude
780.535 km
Semi-major axis
7,179.692 km
Eccentricity
0.00293
Inclination
98.6563°
RAAN
20.5219°
Arg. of periapsis
60.4461°
True anomaly
299.67202°
Mean anomaly
299.9632°
Eccentric anomaly
299.81766°
Mean motion
3.56767 °/min
Orbital period
100.91 mins
BSTAR
0.00061354
Loading maneuver chart data...
Computing Atmospheric mass density...

Documentation

Showing up to 5 results
|